EN

Hourly Weather Bolshie Motykaly

Today, 22 October, Thursday

Time Temperature Precipitation Wind Pressure Humidity
00:00 +10°C° 0 mm 4 mps 749 mmHg 74%
01:00 +10°C° 0 mm 4 mps 749 mmHg 76%
02:00 +8°C° 0 mm 4 mps 749 mmHg 78%
03:00 +8°C° 0 mm 4 mps 749 mmHg 79%
04:00 +8°C° 0 mm 4 mps 748 mmHg 80%
05:00 +8°C° 0 mm 4 mps 748 mmHg 82%
06:00 +8°C° 0 mm 5 mps 748 mmHg 81%
07:00 +9°C° 0 mm 5 mps 748 mmHg 80%
08:00 +9°C° 0 mm 5 mps 748 mmHg 78%
09:00 +10°C° 0 mm 5 mps 748 mmHg 74%
10:00 +13°C° 0 mm 6 mps 749 mmHg 69%
11:00 +15°C° 0 mm 7 mps 749 mmHg 64%
12:00 +15°C° 0 mm 6 mps 749 mmHg 62%
13:00 +16°C° 0 mm 6 mps 749 mmHg 60%
14:00 +17°C° 0 mm 6 mps 749 mmHg 59%
15:00 +16°C° 0 mm 5 mps 749 mmHg 63%
16:00 +16°C° 0 mm 5 mps 749 mmHg 67%
17:00 +15°C° 0 mm 4 mps 749 mmHg 71%
18:00 +14°C° 0 mm 4 mps 749 mmHg 74%
19:00 +14°C° 0 mm 3 mps 749 mmHg 78%
20:00 +13°C° 0 mm 3 mps 749 mmHg 81%
21:00 +13°C° 0 mm 3 mps 749 mmHg 82%
22:00 +13°C° 0 mm 3 mps 749 mmHg 82%
23:00 +13°C° 0 mm 3 mps 749 mmHg 83%

Tomorrow, 23 October, Friday

Time Temperature Precipitation Wind Pressure Humidity
00:00 +12°C° 0 mm 3 mps 749 mmHg 84%
01:00 +12°C° 0 mm 3 mps 749 mmHg 85%
02:00 +12°C° 0 mm 3 mps 749 mmHg 86%
03:00 +12°C° 0 mm 3 mps 749 mmHg 86%
04:00 +12°C° 0 mm 3 mps 749 mmHg 85%
05:00 +12°C° 0 mm 3 mps 749 mmHg 84%
06:00 +12°C° 0 mm 4 mps 748 mmHg 83%
07:00 +12°C° 0 mm 4 mps 748 mmHg 82%
08:00 +12°C° 0 mm 4 mps 748 mmHg 81%
09:00 +13°C° 0 mm 4 mps 748 mmHg 78%
10:00 +14°C° 0 mm 4 mps 748 mmHg 75%
11:00 +14°C° 0 mm 5 mps 747 mmHg 71%
12:00 +15°C° 0 mm 5 mps 747 mmHg 69%
13:00 +17°C° 0 mm 4 mps 747 mmHg 67%
14:00 +17°C° 0 mm 4 mps 747 mmHg 65%
15:00 +17°C° 0 mm 4 mps 746 mmHg 69%
16:00 +16°C° 0 mm 3 mps 746 mmHg 72%
17:00 +15°C° 0 mm 2 mps 746 mmHg 76%
18:00 +15°C° 0 mm 2 mps 746 mmHg 78%
19:00 +14°C° 0 mm 2 mps 746 mmHg 81%
20:00 +14°C° 0 mm 2 mps 746 mmHg 83%
21:00 +14°C° 0 mm 2 mps 746 mmHg 84%
22:00 +14°C° 0 mm 2 mps 746 mmHg 84%
23:00 +14°C° 0 mm 2 mps 746 mmHg 84%

Day after tomorrow, 24 October, Saturday

Time Temperature Precipitation Wind Pressure Humidity
00:00 +14°C° 0.1 mm 2 mps 746 mmHg 86%
01:00 +13°C° 0.1 mm 1 mps 746 mmHg 87%
02:00 +13°C° 0.1 mm 1 mps 746 mmHg 89%
03:00 +13°C° 0.5 mm 1 mps 746 mmHg 90%
04:00 +13°C° 0.5 mm 1 mps 746 mmHg 91%
05:00 +13°C° 0.5 mm 2 mps 745 mmHg 92%
06:00 +13°C° 1.5 mm 2 mps 745 mmHg 93%
07:00 +13°C° 1.5 mm 2 mps 745 mmHg 94%
08:00 +13°C° 1.5 mm 2 mps 745 mmHg 95%
09:00 +13°C° 1.4 mm 2 mps 745 mmHg 95%
10:00 +13°C° 1.4 mm 2 mps 745 mmHg 95%
11:00 +12°C° 1.4 mm 3 mps 745 mmHg 95%
12:00 +14°C° 0.3 mm 2 mps 745 mmHg 93%
13:00 +14°C° 0.3 mm 2 mps 745 mmHg 90%
14:00 +14°C° 0.3 mm 2 mps 745 mmHg 88%
15:00 +14°C° 0.3 mm 2 mps 745 mmHg 89%
16:00 +14°C° 0.3 mm 2 mps 745 mmHg 90%
17:00 +13°C° 0.3 mm 2 mps 746 mmHg 91%
18:00 +12°C° 0.7 mm 3 mps 746 mmHg 91%
19:00 +12°C° 0.7 mm 4 mps 747 mmHg 91%
20:00 +11°C° 0.7 mm 4 mps 747 mmHg 91%
21:00 +11°C° 0 mm 4 mps 747 mmHg 90%
22:00 +11°C° 0 mm 4 mps 748 mmHg 89%
23:00 +10°C° 0 mm 5 mps 748 mmHg 89%

25 October, Sunday

Time Temperature Precipitation Wind Pressure Humidity
00:00 +9°C° 0.1 mm 5 mps 749 mmHg 87%
01:00 +9°C° 0.1 mm 5 mps 749 mmHg 86%
02:00 +9°C° 0.1 mm 5 mps 749 mmHg 85%
03:00 +8°C° 0 mm 4 mps 749 mmHg 87%
04:00 +7°C° 0 mm 4 mps 750 mmHg 89%
05:00 +7°C° 0 mm 3 mps 750 mmHg 92%
06:00 +7°C° 0 mm 3 mps 750 mmHg 92%
07:00 +7°C° 0 mm 3 mps 751 mmHg 92%
08:00 +7°C° 0 mm 3 mps 751 mmHg 93%
09:00 +8°C° 0 mm 3 mps 751 mmHg 86%
10:00 +9°C° 0 mm 3 mps 752 mmHg 80%
11:00 +10°C° 0 mm 3 mps 752 mmHg 74%
12:00 +12°C° 0 mm 2 mps 752 mmHg 69%
13:00 +13°C° 0 mm 2 mps 752 mmHg 65%
14:00 +13°C° 0 mm 2 mps 752 mmHg 61%
15:00 +12°C° 0 mm 1 mps 752 mmHg 65%
16:00 +12°C° 0 mm 1 mps 751 mmHg 69%
17:00 +10°C° 0 mm 0 mps 751 mmHg 72%
18:00 +10°C° 0 mm 1 mps 752 mmHg 74%
19:00 +10°C° 0 mm 1 mps 752 mmHg 76%
20:00 +10°C° 0 mm 1 mps 752 mmHg 78%
21:00 +8°C° 0 mm 2 mps 752 mmHg 79%
22:00 +8°C° 0 mm 2 mps 752 mmHg 81%
23:00 +7°C° 0 mm 2 mps 752 mmHg 83%

26 October, Monday

Time Temperature Precipitation Wind Pressure Humidity
00:00 +7°C° 0 mm 2 mps 752 mmHg 84%
01:00 +7°C° 0 mm 2 mps 752 mmHg 85%
02:00 +5°C° 0 mm 3 mps 752 mmHg 86%
03:00 +5°C° 0 mm 3 mps 752 mmHg 87%
04:00 +5°C° 0 mm 3 mps 752 mmHg 89%
05:00 +5°C° 0 mm 3 mps 752 mmHg 90%
06:00 +5°C° 0 mm 3 mps 752 mmHg 90%
07:00 +5°C° 0 mm 3 mps 752 mmHg 90%
08:00 +5°C° 0 mm 4 mps 752 mmHg 90%
09:00 +6°C° 0 mm 4 mps 752 mmHg 84%
10:00 +8°C° 0 mm 5 mps 752 mmHg 77%
11:00 +9°C° 0 mm 5 mps 752 mmHg 71%
12:00 +10°C° 0 mm 5 mps 752 mmHg 68%
13:00 +12°C° 0 mm 5 mps 752 mmHg 65%
14:00 +13°C° 0 mm 6 mps 751 mmHg 62%
15:00 +12°C° 0 mm 5 mps 751 mmHg 65%
16:00 +10°C° 0 mm 5 mps 751 mmHg 68%
17:00 +10°C° 0 mm 4 mps 751 mmHg 71%
18:00 +9°C° 0 mm 5 mps 751 mmHg 74%
19:00 +8°C° 0 mm 5 mps 751 mmHg 77%
20:00 +8°C° 0 mm 5 mps 751 mmHg 80%
21:00 +8°C° 0 mm 5 mps 751 mmHg 81%
22:00 +7°C° 0 mm 5 mps 751 mmHg 81%
23:00 +7°C° 0 mm 5 mps 751 mmHg 82%

27 October, Tuesday

Time Temperature Precipitation Wind Pressure Humidity
00:00 +7°C° 0 mm 5 mps 751 mmHg 83%
01:00 +6°C° 0 mm 5 mps 751 mmHg 84%
02:00 +6°C° 0 mm 5 mps 751 mmHg 85%
03:00 +6°C° 0 mm 5 mps 751 mmHg 85%
04:00 +5°C° 0 mm 5 mps 751 mmHg 85%
05:00 +5°C° 0 mm 5 mps 751 mmHg 86%
06:00 +5°C° 0 mm 5 mps 751 mmHg 85%
07:00 +5°C° 0 mm 5 mps 751 mmHg 85%
08:00 +5°C° 0 mm 5 mps 751 mmHg 84%
09:00 +7°C° 0 mm 5 mps 751 mmHg 80%
10:00 +8°C° 0 mm 5 mps 751 mmHg 75%
11:00 +9°C° 0 mm 5 mps 751 mmHg 71%
12:00 +10°C° 0 mm 5 mps 751 mmHg 69%
13:00 +12°C° 0 mm 5 mps 751 mmHg 68%
14:00 +12°C° 0 mm 5 mps 751 mmHg 67%
15:00 +12°C° 0 mm 4 mps 751 mmHg 71%
16:00 +11°C° 0 mm 4 mps 751 mmHg 74%
17:00 +11°C° 0 mm 3 mps 751 mmHg 78%
18:00 +11°C° 0.1 mm 3 mps 751 mmHg 80%
19:00 +11°C° 0.1 mm 3 mps 751 mmHg 82%
20:00 +11°C° 0.1 mm 4 mps 751 mmHg 84%
21:00 +11°C° 0 mm 3 mps 752 mmHg 86%
22:00 +10°C° 0 mm 3 mps 752 mmHg 88%
23:00 +10°C° 0 mm 3 mps 752 mmHg 91%
Show more